Blue Canyon, CA

4:42 PM PST on February 19, 2018 (GMT -0800)
Blue Canyon-Nyack

Weather History for KBLU - May, 2013

Change the Weather History Date:

Friday, May 3, 2013

  Actual Average Record
Temperature  
Mean Temperature 64 °F -  
Max Temperature 72 °F 58 °F 77 °F (1966)
Min Temperature 57 °F 42 °F 21 °F (1950)
Degree Days  
Heating Degree Days 1    
Growing Degree Days 14 (Base 50)    
Moisture  
Dew Point 31 °F    
Average Humidity 30    
Maximum Humidity 36    
Minimum Humidity 16    
Precipitation  
Precipitation 0.00 in - - ()
Sea Level Pressure  
Sea Level Pressure 29.93 in    
Wind  
Wind Speed 5 mph (North)    
Max Wind Speed 13 mph    
Max Gust Speed 23 mph    
Visibility 10 miles    
Events      
Averages and records for this station are not official NWS values.
T = Trace of Precipitation, MM = Missing Value Source: NWS Daily Summary

Daily Weather History Graph

Daily Weather History Graph

Search for Another Location

Airport or City:

Trip Planner

Search our weather history database for the weather conditions in past years. The results will help you decide how hot, cold, wet, or windy it might be!

Date:

Astronomy

May. 03, 2013 Rise Set
Actual Time 6:01 AM PDT 7:58 PM PDT
Civil Twilight 5:32 AM PDT 8:27 PM PDT
Nautical Twilight 4:56 AM PDT 9:03 PM PDT
Astronomical Twilight 4:18 AM PDT 9:41 PM PDT
Moon 2:26 AM PDT (5/3) 2:00 PM PDT (5/3)
Length of Visible Light 14h 55m
Length of Day
13h 56m
Waning Crescent, 36% of the Moon is Illuminated
May 3
Waning Crescent
May 9
New
May 17
First Quarter
May 24
Full
May 31
Last Quarter

Hourly Weather History & Observations

Time (PDT) Temp. Dew Point Humidity Pressure Visibility Wind Dir Wind Speed Gust Speed Precip Events Conditions
12:52 AM 59.0 °F 32.0 °F 36% 30.06 in 10.0 mi NE 3.5 mph - N/A   Clear
1:52 AM 60.1 °F 32.0 °F 35% 30.04 in 10.0 mi NE 3.5 mph - N/A   Clear
2:52 AM 59.0 °F 32.0 °F 36% 30.03 in 10.0 mi North 3.5 mph - N/A   Clear
3:52 AM 59.0 °F 28.9 °F 32% 30.02 in 10.0 mi North 4.6 mph - N/A   Clear
4:52 AM 57.0 °F 28.9 °F 34% 30.00 in 10.0 mi NE 3.5 mph - N/A   Clear
5:52 AM 57.9 °F 28.9 °F 33% 30.01 in 10.0 mi NNE 4.6 mph - N/A   Clear
6:52 AM 57.9 °F 30.0 °F 35% 30.01 in 10.0 mi NE 4.6 mph - N/A   Clear
7:52 AM 61.0 °F 32.0 °F 34% 30.00 in 10.0 mi North 4.6 mph - N/A   Clear
8:52 AM 64.0 °F 26.1 °F 24% 29.99 in 10.0 mi Calm Calm - N/A   Clear
9:52 AM 64.9 °F 32.0 °F 29% 29.98 in 10.0 mi Variable 3.5 mph - N/A   Clear
10:52 AM 66.9 °F 33.1 °F 28% 29.96 in 10.0 mi Variable 4.6 mph - N/A   Clear
11:52 AM 68.0 °F 32.0 °F 26% 29.95 in 10.0 mi Calm Calm - N/A   Clear
12:52 PM 70.0 °F 33.1 °F 26% 29.91 in 10.0 mi Variable 4.6 mph - N/A   Clear
1:52 PM 70.0 °F 36.0 °F 29% 29.89 in 10.0 mi Variable 6.9 mph - N/A   Clear
2:52 PM 71.1 °F 37.9 °F 30% 29.88 in 10.0 mi Variable 6.9 mph 16.1 mph N/A   Clear
3:52 PM 70.0 °F 37.0 °F 30% 29.86 in 10.0 mi Variable 6.9 mph 16.1 mph N/A   Clear
4:52 PM 70.0 °F 39.0 °F 32% 29.86 in 10.0 mi West 10.4 mph - N/A   Clear
5:52 PM 68.0 °F 39.0 °F 35% 29.86 in 10.0 mi WNW 5.8 mph - N/A   Clear
6:52 PM 66.9 °F 37.0 °F 33% 29.85 in 10.0 mi WNW 5.8 mph - N/A   Clear
7:52 PM 64.9 °F 36.0 °F 34% 29.84 in 10.0 mi NNW 6.9 mph - N/A   Clear
8:52 PM 64.0 °F 35.1 °F 34% 29.83 in 10.0 mi North 4.6 mph - N/A   Clear
9:52 PM 62.1 °F 25.0 °F 24% 29.84 in 10.0 mi NE 5.8 mph - N/A   Clear
10:52 PM 63.0 °F 15.1 °F 16% 29.82 in 10.0 mi NE 12.7 mph 23.0 mph N/A   Clear
11:52 PM 61.0 °F 15.1 °F 17% 29.82 in 10.0 mi NE 11.5 mph 20.7 mph N/A   Clear